Weather Roundup
Issued by NWS

Home | Current Version | Previous Version | Text Only | Print | Product List | Glossary On
Versions: 1 2 3 4 5 6 7 8 9 10 11 12 13 14 15 16 17 18 19 20 21 22 23 24 25 26 27 28 29 30 31 32 33 34 35 36 37 38 39 40 41 42 43 44 45 46 47 48 49 50
968
NZUS93 KARX 142059
HRRWXR

CURRENT HOURLY OBSERVATIONS ACROSS
MUCH OF THE UPPER MISSISSIPPI VALLEY
NATIONAL WEATHER SERVICE LA CROSSE WI
300 PM CST THU DEC 14 2017


...SOUTHEAST MINNESOTA...


CITY           SKY/WX    TMP DP  RH WIND       PRES   REMARKS
ROCHESTER      CLOUDY    21  16  81 W8        30.00S WCI  11
ROCHESTER/MAYO CLOUDY    24  17  74 W9        30.01S WCI  15
WINONA           N/A     28  18  64 SW3       30.03F
AUSTIN         CLOUDY    23  16  74 W8        30.01S WCI  14
ALBERT LEA     CLOUDY    21  18  86 NW6       30.02R WCI  14
DODGE CENTER   CLOUDY    21  18  86 W8        30.00S WCI  12
PRESTON        CLOUDY    23  14  68 W10       30.01R WCI  13
OWATONNA       MIX PCPN  21  18  86 W9        30.01S WCI  11
FARIBAULT      CLOUDY    23  18  80 W8        30.01F WCI  14
$$

...ELSEWHERE IN MINNESOTA...


CITY           SKY/WX    TMP DP  RH WIND       PRES   REMARKS
MINNEAPOLIS    CLOUDY    22  17  81 W7        30.02S WCI  13
INTNL FALLS    LGT SNOW  15   7  70 W9        29.93S VSB 3/4 WCI   3
DULUTH         FLURRIES  16  10  77 W12       29.90F WCI   3
RED WING       CLOUDY    23  16  74 W8        30.02S WCI  14
REDWOOD FALLS  CLOUDY    27  19  72 NW8       30.04R WCI  19
MANKATO        CLOUDY    23  18  81 NW13      30.03S WCI  11
WORTHINGTON    FLURRIES  30  24  78 NW9       30.03R WCI  22
FAIRMONT       CLOUDY    27  21  78 NW12      30.03S WCI  17
$$

...SOUTHWEST WISCONSIN...


CITY           SKY/WX    TMP DP  RH WIND       PRES   REMARKS
LA CROSSE      CLOUDY    27  13  55 SW9       30.03F WCI  18
PRAIRIE DU CHI SUNNY     28  11  48 S3        30.04F
BOSCOBEL       SUNNY     29  12  49 SW6       30.04F WCI  23
LONE ROCK      NOT AVBL
PLATTEVILLE    SUNNY     27  11  51 SW6       30.02F WCI  21
FORT MC COY    CLOUDY    26  14  60 SW5       30.03S WCI  20
MAUSTON-NEW LI CLOUDY    25  13  59 W8        30.01S WCI  16
VIROQUA        CLOUDY    24  14  68 SW5       29.99F WCI  18
WIS DELLS      SUNNY     26  11  55 W7        30.01F WCI  18
$$

...ELSEWHERE IN WISCONSIN...


CITY           SKY/WX    TMP DP  RH WIND       PRES   REMARKS
MILWAUKEE      MOSUNNY   24  10  55 W7        30.04S WCI  16
MADISON        MOSUNNY   25  10  53 W6        30.02F WCI  18
GREEN BAY      PTCLDY    20  10  65 SW5       30.00F WCI  13
EAU CLAIRE     CLOUDY    23  15  71 W10       29.99S WCI  12
BLACK RVR FLS  CLOUDY    26  11  54 SW5       30.01S WCI  20
MEDFORD        LGT SNOW  19  14  82 SW7       29.94S WCI   9
WAUSAU         FLURRIES  20  14  77 W9        29.95S WCI   9
WIS RAPIDS     CLOUDY    23  12  62 W7        30.01S WCI  15
MARSHFIELD     CLOUDY    20  14  77 W8        29.96S WCI  10
RICE LAKE      LGT SNOW  20  16  83 CALM      29.99F
$$

...NORTHEAST IOWA...


CITY           SKY/WX    TMP DP  RH WIND       PRES   REMARKS
WATERLOO       CLOUDY    26  14  60 NW6       30.04F WCI  19
DUBUQUE        SUNNY     26  13  57 W6        30.03F WCI  19
DECORAH        CLOUDY    27  16  63 SW6G12    29.99F WCI  20
MASON CITY     CLOUDY    25  17  72 NW13      30.03F WCI  14
CHARLES CITY   CLOUDY    27  16  63 W7G18     30.02F WCI  19
OELWEIN        PTSUNNY   27  18  69 SW9       30.03S WCI  17
$$

...ELSEWHERE IN IOWA...


CITY           SKY/WX    TMP DP  RH WIND       PRES   REMARKS
DES MOINES     CLOUDY    32  19  58 NW8       30.06S WCI  25
IOWA CITY      CLOUDY    28  16  60 W7        30.09S WCI  21
FORT DODGE     CLOUDY    30  22  72 NW7       30.05R WCI  23
MARSHALLTOWN   CLOUDY    28  18  66 NW12      30.04F WCI  18
CEDAR RAPIDS   CLOUDY    25  16  68 VRB7      30.05F WCI  17
$$

...NORTHERN ILLINOIS...


CITY           SKY/WX    TMP DP  RH WIND       PRES   REMARKS
CHICAGO-OHARE  PTSUNNY   26   7  44 NW3       30.04S
CHICAGO-MIDWAY PTSUNNY   28  11  48 W5        30.05R WCI  23
MOLINE         CLOUDY    29  17  61 W5        30.07S WCI  24
ROCKFORD       MOSUNNY   27  10  49 NW3       30.07R
PEORIA         CLOUDY    30  13  49 NW6       30.08R WCI  24
$$

NOTE: "FAIR" INDICATES FEW OR NO CLOUDS BELOW 12,000 FEET WITH NO
SIGNIFICANT WEATHER AND/OR OBSTRUCTIONS TO VISIBILITY. WIND
SPEEDS ARE IN MILES-PER-HOUR.




USA.gov is the U.S. government's official web portal to all federal, state and local government web resources and services.